Theta_e
308 309 309 309 309 309 309 309 309 309 309 310 310 310 310 310 310 310 310 310 310 310 310 310 310 310 310 310 310 310 310 310 310 310 310 310 310 310 311 311 311 310 310 309 307 305 304 303 303 304 305 305 306 306 306 306 305 306 306 306 306 306 306 307 309 310 310 309 309 308 307 307 306 306 306 306 306 306 306 306 306 306 306 306 306
307 307 307 307 307 307 308 307 307 308 308 308 308 308 308 308 308 309 309 309 310 310 310 310 309 309 309 309 309 309 309 310 310 310 310 310 310 310 311 311 311 310 310 309 308 306 305 304 303 304 305 305 306 306 306 306 306 306 306 306 306 306 306 306 307 309 309 309 308 308 307 307 306 306 306 306 306 306 306 306 306 306 306 306 306
308 308 308 308 308 308 309 309 309 309 308 308 308 308 308 308 307 307 307 307 308 308 309 309 309 309 309 309 309 309 309 309 309 309 310 310 310 310 310 310 310 311 310 309 308 307 305 304 304 304 304 305 305 306 306 306 306 306 306 305 305 306 306 306 306 307 308 308 308 308 308 307 306 306 306 306 306 306 305 306 306 306 306 306 306
308 309 308 309 309 309 309 309 309 309 309 309 309 309 309 309 309 308 307 307 306 306 307 307 308 308 309 309 309 309 309 309 309 309 309 310 310 310 310 310 310 310 310 310 309 308 306 305 304 304 304 304 305 306 306 306 306 305 305 305 305 305 306 306 305 305 306 307 307 308 308 307 306 306 305 305 305 305 305 305 305 305 305 305 305
309 309 309 309 309 309 309 309 309 309 309 309 309 309 309 309 309 309 309 308 307 307 306 306 306 307 307 308 308 308 308 308 309 309 309 309 309 310 310 310 310 310 310 310 309 308 307 306 305 304 304 304 305 305 306 306 306 305 305 305 305 305 305 305 305 305 305 305 306 307 307 307 306 306 305 305 305 305 305 305 305 305 305 305 305
309 309 309 309 309 309 309 309 309 309 309 309 309 309 309 309 309 309 309 308 308 308 307 307 306 306 306 306 307 308 308 308 308 308 309 308 309 309 309 309 310 310 310 310 309 309 308 307 306 304 304 304 304 305 305 306 306 306 305 305 305 305 305 305 305 305 305 305 305 305 306 306 306 306 305 305 304 305 305 305 305 304 304 304 304
309 309 309 309 309 309 309 309 309 309 309 308 308 308 308 308 308 308 309 308 308 308 308 308 307 306 305 305 306 307 307 307 308 308 308 308 308 309 309 309 309 309 310 310 310 309 308 307 306 305 304 303 304 304 305 305 305 305 305 305 305 305 305 305 304 304 304 304 304 304 305 305 305 305 305 304 304 304 304 304 304 304 304 304 304
308 308 308 308 308 308 308 308 308 308 308 308 308 308 308 308 308 308 308 308 308 308 308 308 307 306 305 305 305 305 306 307 307 308 308 308 308 308 308 309 309 309 309 309 309 309 309 308 307 306 305 304 303 304 304 305 305 305 305 305 305 305 305 305 304 304 304 304 304 304 304 304 304 305 305 304 304 304 304 304 304 304 304 304 304
307 307 307 307 308 308 307 308 308 307 308 307 307 308 307 308 308 308 308 308 308 308 308 307 307 306 306 305 305 305 305 306 306 307 307 307 308 308 308 308 308 308 309 309 309 309 309 308 308 306 306 305 304 304 304 304 305 305 305 305 305 305 305 305 304 304 304 304 304 304 304 304 304 304 305 305 305 305 305 304 304 304 304 304 304
306 306 306 306 307 307 307 307 307 307 307 307 307 307 307 307 307 307 308 308 308 308 307 307 307 307 306 305 305 305 305 305 306 306 307 307 307 307 308 308 308 308 308 308 308 309 309 308 308 307 306 305 304 304 304 304 304 304 304 304 305 305 304 304 304 304 304 304 304 304 304 304 304 305 305 305 305 304 304 304 304 304 304 304 304
305 305 305 305 305 306 306 306 307 307 307 307 307 306 307 306 307 307 307 307 307 307 307 307 307 307 306 305 305 304 304 304 305 306 306 307 307 307 307 308 308 308 308 308 308 308 308 308 308 308 307 306 305 304 304 304 304 304 304 304 304 304 304 304 304 304 304 304 304 303 304 304 305 305 305 305 304 304 304 304 304 304 304 304 304
304 304 304 304 304 304 305 305 305 305 305 305 306 306 306 306 306 306 306 306 306 306 306 307 306 306 306 305 305 305 304 304 305 305 306 306 306 307 307 307 308 308 308 308 308 308 308 308 308 308 307 307 306 305 304 304 305 305 305 304 304 304 304 304 304 304 304 304 304 303 304 304 304 304 305 305 304 304 304 304 304 304 304 304 304
304 304 304 304 304 304 304 304 304 304 304 305 305 305 305 305 305 305 306 305 305 305 306 306 306 306 306 305 305 305 304 304 304 305 305 306 306 306 307 307 308 308 308 308 308 308 308 308 308 308 307 307 307 306 305 305 305 305 305 305 305 305 305 305 305 305 305 305 304 304 304 304 304 304 304 304 304 304 304 304 304 304 304 304 304
305 305 305 304 304 304 304 304 304 304 304 304 304 304 304 305 305 305 305 305 305 305 305 305 305 306 305 305 305 305 304 304 304 304 305 305 306 306 306 307 308 308 308 308 308 308 307 308 308 307 307 307 307 306 306 306 306 306 306 306 306 306 306 306 306 305 305 305 305 305 305 305 305 305 304 304 304 304 304 304 304 304 304 304 304
305 305 305 305 305 304 304 304 304 303 303 303 303 304 303 304 304 304 305 305 305 304 304 305 305 305 305 305 305 305 304 304 304 304 304 305 305 306 306 307 307 307 308 307 307 307 307 307 307 307 307 307 307 307 307 306 306 306 306 306 306 306 306 306 306 306 305 306 306 305 305 305 305 305 305 304 304 304 304 304 304 304 304 304 304
305 305 305 305 305 305 304 304 304 304 303 303 303 303 303 303 303 304 304 305 305 304 304 304 305 305 305 305 305 305 304 304 304 304 304 304 305 305 306 306 307 307 308 307 307 307 307 307 307 307 307 307 307 307 307 307 307 307 307 307 306 306 306 306 306 306 306 306 306 305 305 305 305 305 305 304 304 304 304 304 304 304 304 304 303
305 305 305 305 305 305 304 304 304 304 304 303 303 303 303 303 303 303 304 304 305 305 305 305 305 305 305 305 305 305 304 304 304 304 304 304 305 305 306 306 307 307 308 307 307 307 307 307 307 307 307 307 307 307 307 307 307 307 307 307 307 307 306 306 306 306 306 306 306 305 305 305 305 305 305 305 304 304 304 304 304 304 304 303 303
304 304 304 304 304 304 304 304 304 304 304 304 304 304 304 303 303 303 303 303 304 304 304 304 304 305 304 304 304 304 304 304 304 303 303 303 304 305 306 306 306 307 307 307 307 307 307 307 307 307 307 307 307 307 307 307 307 307 307 307 307 306 306 306 306 306 305 305 305 305 305 305 305 305 304 304 304 304 305 304 304 304 303 303 303
304 303 303 303 303 303 303 303 303 303 304 304 304 304 304 304 304 303 303 303 303 304 304 304 304 304 304 304 304 304 304 304 304 303 303 303 304 305 306 306 306 307 307 307 307 307 307 307 307 307 307 307 307 307 307 307 306 306 307 306 306 306 306 306 306 306 305 305 305 305 305 304 304 304 304 304 304 304 304 304 304 303 303 302 302
302 302 302 302 302 302 302 303 303 303 303 303 303 303 303 304 303 304 303 303 304 304 304 304 304 304 304 304 304 304 304 304 303 303 303 303 304 305 306 306 306 306 307 307 307 307 307 307 307 307 307 307 307 307 307 307 307 306 306 306 306 306 306 306 306 306 305 305 305 305 305 304 304 304 304 303 304 304 304 304 303 303 303 302 301
300 301 301 301 301 301 301 302 302 302 302 302 302 302 303 303 303 303 303 303 303 303 304 304 304 304 303 303 303 303 303 303 303 303 303 303 304 305 306 306 306 306 306 306 307 307 307 307 307 307 307 307 307 307 307 307 307 306 306 306 306 306 306 306 306 305 305 305 305 304 304 304 303 303 303 303 304 304 303 303 303 303 302 302 301
298 299 299 300 301 301 301 301 301 301 301 301 301 301 301 301 302 302 302 302 303 303 303 303 303 303 303 303 303 303 303 303 303 303 303 303 305 305 306 305 305 305 306 306 306 306 306 306 306 306 307 307 307 307 306 306 306 306 306 306 306 306 306 306 305 305 305 304 304 303 303 303 302 302 303 303 304 304 303 303 303 303 302 301 301
297 298 298 298 299 300 301 301 301 300 300 300 300 300 300 300 301 301 301 302 302 302 302 302 302 302 302 302 302 302 302 303 303 303 303 304 305 305 305 304 304 304 304 304 305 305 305 305 306 306 306 306 306 306 305 305 306 306 306 306 305 305 305 305 304 304 304 303 303 302 301 301 301 302 302 303 303 302 302 302 302 302 302 301 300
297 297 297 297 298 298 299 299 300 300 300 300 300 300 300 299 300 300 300 300 300 301 301 301 301 301 301 301 301 301 301 301 302 302 302 302 302 302 302 302 302 302 302 302 303 303 303 304 304 304 304 304 304 304 304 304 305 304 304 304 304 304 304 303 303 303 302 302 301 300 300 300 300 301 301 301 300 300 300 300 301 300 300 299 298
297 297 297 297 297 297 297 298 298 299 299 299 299 299 299 299 299 299 298 298 298 298 298 298 299 299 298 299 299 299 299 300 300 300 300 300 300 300 301 301 301 301 301 301 301 301 302 302 302 302 302 302 303 303 303 303 302 302 302 302 302 302 302 302 302 301 301 300 299 299 299 298 298 298 298 298 298 298 298 298 298 298 297 296 295
297 297 297 297 296 296 297 297 297 298 298 298 298 298 298 299 299 298 298 297 296 296 296 296 296 296 297 297 297 298 298 298 298 299 299 299 299 300 300 300 300 300 300 300 300 300 300 301 301 301 301 301 301 302 302 302 301 301 301 301 301 301 301 301 300 300 299 299 298 298 298 297 296 296 295 296 296 296 296 296 295 295 295 294 294
297 297 298 298 297 296 296 296 296 297 297 297 297 297 298 298 298 297 297 296 295 295 295 295 295 296 296 296 297 297 297 297 297 298 298 298 299 299 300 300 299 299 300 300 300 300 300 300 300 300 300 300 300 300 301 301 300 300 300 300 300 299 299 299 299 298 298 298 297 296 296 295 294 293 293 293 294 293 293 293 293 293 293 293 292
296 296 297 298 298 297 296 296 296 296 297 297 297 297 297 297 296 296 296 295 295 295 295 296 296 296 296 296 296 297 297 297 297 297 297 298 298 298 299 299 299 299 299 299 299 299 298 298 298 298 298 298 299 299 299 299 299 299 299 298 298 298 298 297 297 296 296 296 295 295 294 293 292 291 291 291 291 291 291 291 291 291 291 291 291
294 295 296 296 297 297 297 296 296 296 296 297 297 297 297 296 296 295 295 295 295 295 295 295 295 296 296 296 296 296 296 297 297 297 297 297 297 297 297 298 298 298 298 298 298 298 297 297 297 297 297 297 297 297 297 298 297 297 297 296 296 296 295 295 295 294 293 293 293 293 292 291 290 290 290 290 291 290 290 290 290 290 290 290 290
292 293 294 295 296 296 296 296 295 294 295 296 296 296 296 296 295 294 294 294 294 294 294 295 295 295 295 295 296 296 295 295 296 296 296 296 296 296 296 296 297 297 296 296 296 296 296 296 295 295 295 295 295 296 296 296 296 295 295 294 294 293 293 292 292 292 291 291 291 291 291 291 290 290 290 290 290 289 289 289 288 288 288 288 288
290 290 292 293 294 295 295 295 294 293 292 293 294 295 295 295 294 293 292 292 292 293 294 294 294 294 294 294 294 294 294 294 294 294 295 295 294 294 294 294 295 295 295 295 294 294 294 294 294 293 293 293 293 293 293 294 293 293 293 292 291 291 291 290 290 290 290 290 290 290 290 290 290 289 289 288 288 288 287 287 287 286 286 286 285
287 287 288 289 291 293 293 293 292 291 290 290 290 291 293 293 293 292 291 291 290 290 291 292 293 293 292 292 292 292 293 293 293 293 293 293 293 292 292 292 293 293 292 293 293 292 293 293 293 292 292 292 292 291 291 291 290 290 290 290 289 288 288 288 288 288 288 288 288 288 288 288 288 287 287 286 286 286 286 285 285 284 284 283 283
284 284 284 285 286 288 289 290 289 288 287 287 287 287 288 289 289 290 290 289 289 289 289 289 290 291 291 290 290 290 291 291 292 292 291 291 291 290 290 290 291 291 291 291 291 291 291 291 291 291 291 291 290 290 289 288 288 287 287 287 287 287 286 286 286 286 286 286 286 286 286 286 286 285 285 284 284 284 283 283 283 282 282 282 281
281 281 281 281 282 283 285 286 286 285 284 284 284 285 285 286 286 287 287 287 287 287 287 287 288 288 288 288 288 288 288 288 289 289 289 289 288 289 289 289 289 289 289 289 290 290 290 290 289 289 289 288 287 287 286 286 286 286 286 286 286 286 285 285 285 285 285 285 284 284 284 284 283 283 283 283 282 282 282 281 281 281 280 280 280
280 280 279 279 279 280 281 282 283 283 282 282 283 283 284 284 285 285 285 285 286 286 286 286 286 286 286 286 286 286 286 287 287 287 287 287 287 287 287 287 288 287 287 286 287 287 287 287 287 287 286 286 285 285 285 284 284 284 284 284 284 284 284 284 284 283 283 283 282 282 282 281 281 281 281 281 281 280 280 280 280 279 279 278 278
278 279 278 278 278 278 279 279 280 281 281 281 282 282 283 283 283 284 284 284 284 284 284 285 284 284 284 284 284 285 285 285 285 286 286 286 286 286 285 285 285 286 285 285 285 285 285 285 285 285 285 284 284 283 283 283 282 282 282 282 282 282 281 281 281 281 281 280 280 280 280 279 279 279 279 279 279 279 278 278 278 277 277 277 276
277 277 277 277 277 277 277 278 278 279 280 280 280 281 281 282 282 282 282 282 283 283 283 283 283 282 282 282 282 283 283 283 283 283 284 284 284 284 284 283 283 284 284 283 283 283 283 283 283 283 283 283 282 282 281 281 281 280 280 280 279 279 279 279 279 279 278 278 278 278 278 278 278 278 277 277 277 277 276 276 276 276 276 275 275
276 276 276 277 277 277 277 277 277 277 278 278 279 279 280 280 280 281 281 281 281 281 281 281 281 281 280 280 280 281 281 282 281 281 281 281 282 282 282 282 281 281 282 282 281 281 281 281 281 281 281 281 280 280 280 279 279 278 278 278 278 278 278 277 277 277 277 277 277 276 276 276 276 276 276 276 276 275 275 275 275 275 275 274 274
275 275 276 276 276 276 276 277 276 276 276 277 277 278 278 279 279 279 279 279 279 279 279 279 279 279 279 279 279 279 280 280 280 280 279 279 279 279 279 279 279 279 279 280 279 279 279 279 278 278 278 278 278 278 278 278 278 277 277 277 276 276 276 276 276 276 276 276 276 276 276 276 275 276 275 275 275 275 275 274 274 274 274 273 273
274 275 275 275 275 275 276 276 276 276 276 276 276 276 276 277 277 278 278 278 278 278 278 278 277 277 277 277 277 277 278 278 278 278 278 278 277 277 277 277 277 277 277 277 277 277 277 277 277 276 276 276 276 276 276 276 276 276 276 276 276 276 276 276 275 275 275 275 275 275 275 275 275 275 275 274 274 274 274 273 273 273 273 272 272
273 274 274 274 275 275 275 275 275 275 275 275 275 275 275 275 276 276 276 277 277 277 277 277 277 276 276 276 276 276 276 276 276 276 276 276 276 276 276 276 276 276 276 276 276 275 275 275 275 275 275 275 275 275 275 275 276 276 276 276 276 275 275 275 275 275 275 274 274 274 274 274 274 274 273 273 273 273 272 272 272 272 272 271 271
272 273 273 273 274 274 274 274 274 274 274 274 274 274 274 274 275 275 275 275 275 275 275 275 276 276 275 275 275 275 275 275 275 275 275 275 275 275 275 275 275 275 275 275 275 275 275 275 274 274 274 274 274 274 274 274 274 274 275 275 274 274 274 274 274 274 273 273 273 273 273 272 272 272 272 272 272 272 271 271 271 271 271 271 271
271 272 272 272 272 273 273 273 273 273 273 273 273 273 273 274 274 274 274 274 274 274 274 274 274 274 274 274 274 274 274 274 274 274 274 274 274 274 274 274 274 274 274 274 274 274 274 274 274 274 273 273 273 273 273 273 273 273 273 273 273 273 273 273 273 273 272 272 272 272 272 272 271 271 271 271 271 271 271 271 271 270 270 270 270
270 270 271 271 271 272 272 272 272 272 272 272 272 272 272 272 272 273 273 273 273 273 273 273 273 273 273 273 273 273 273 273 273 273 273 273 273 273 273 273 273 273 273 273 273 273 273 273 273 273 273 273 273 272 272 272 272 272 272 272 272 272 272 272 272 271 271 271 271 271 271 271 271 270 270 270 270 270 270 270 270 270 270 269 269
270 270 270 270 270 270 271 271 271 271 271 271 271 271 271 271 271 271 271 272 272 272 272 272 272 272 272 272 272 272 272 272 272 272 272 272 272 272 272 272 272 272 272 272 272 272 272 272 272 272 272 272 272 272 272 271 271 271 271 271 271 271 271 271 271 270 270 270 270 270 270 270 270 270 269 269 269 269 269 269 269 269 269 269 269
269 270 270 270 270 270 270 270 270 271 271 271 271 271 271 271 271 271 271 271 271 271 271 271 271 271 271 271 271 271 271 271 271 271 271 271 271 271 271 271 271 271 271 271 271 271 271 271 271 271 271 271 271 271 271 271 270 270 270 270 270 270 270 270 270 270 269 270 269 269 269 269 269 269 269 269 269 268 268 268 268 268 268 268 268
269 269 269 269 269 269 269 269 269 270 270 270 270 270 271 271 271 271 271 271 271 270 271 270 270 271 271 271 271 271 271 271 271 271 271 271 271 271 271 271 271 271 270 270 270 270 270 270 270 270 270 270 270 270 270 270 270 270 270 269 269 269 269 269 269 269 269 269 269 269 269 269 269 268 268 268 268 268 268 268 268 267 267 267 267
269 269 269 269 269 269 269 269 269 269 269 269 269 269 270 270 270 270 270 270 270 270 270 270 270 270 270 270 270 270 270 270 270 270 270 270 270 270 270 270 270 270 270 270 270 270 270 270 270 270 270 269 269 269 269 269 269 269 269 269 269 269 269 269 269 269 269 269 269 269 269 269 268 268 268 268 268 268 267 267 267 267 267 266 266
268 268 268 269 269 269 269 269 269 269 269 269 269 269 269 269 269 269 269 269 269 270 270 270 270 270 270 270 270 269 269 270 270 269 270 270 270 270 270 270 270 270 270 269 269 269 269 269 269 269 269 269 269 269 269 269 269 269 269 269 269 269 269 269 269 269 269 269 268 268 268 268 268 268 268 267 267 267 267 267 266 266 266 266 266
268 268 268 268 268 268 268 269 269 269 269 269 269 269 268 268 268 268 268 268 269 269 269 269 269 269 269 269 269 269 269 269 269 269 269 269 269 269 269 269 269 269 269 269 269 269 269 269 269 269 269 269 269 269 269 269 269 268 269 268 268 268 268 269 269 268 268 268 268 268 268 268 267 267 267 267 267 267 266 266 266 265 265 265 265
268 268 268 268 268 268 268 268 268 268 268 269 269 269 269 269 269 268 268 268 268 268 268 268 268 269 269 269 269 269 269 269 269 269 269 269 269 269 269 269 269 269 269 269 269 269 269 269 269 269 269 269 269 268 268 268 268 268 268 268 268 268 268 268 268 268 268 268 268 267 267 267 267 267 267 266 266 266 265 265 265 264 264 264 264
Wind_Speed
6 7 7 8 8 9 9 9 9 9 10 10 10 11 11 12 14 15 16 17 18 19 19 20 21 21 22 24 25 26 27 28 28 28 29 31 32 34 35 36 37 36 36 36 37 38 39 39 39 38 36 35 34 34 34 33 32 32 31 31 30 28 27 25 21 18 18 17 16 16 18 18 18 17 17 17 17 16 16 16 15 14 14 13 13
4 5 6 6 6 6 6 6 6 6 7 7 7 7 8 10 11 13 15 16 17 18 18 19 20 21 22 23 24 25 26 27 28 29 29 30 32 33 35 37 37 37 37 38 38 39 39 40 40 39 37 36 35 35 34 34 33 33 33 32 31 29 28 28 26 23 21 20 19 18 19 19 19 18 18 18 17 16 16 15 15 14 14 13 13
6 6 6 6 6 6 6 6 6 6 5 5 4 4 6 7 9 11 13 14 16 17 18 19 20 21 22 23 24 25 26 26 27 28 29 30 31 33 34 36 38 38 39 39 39 39 40 40 40 40 38 38 37 36 35 35 34 33 33 33 32 30 29 28 28 26 25 23 22 21 20 20 20 19 19 18 17 17 16 16 15 15 15 14 13
9 9 9 9 9 9 9 9 9 8 7 6 5 5 7 8 10 11 13 14 16 17 18 19 20 22 23 23 24 25 25 26 27 28 29 30 31 32 34 36 37 39 39 39 39 39 40 41 41 40 39 39 39 38 37 36 35 33 33 33 32 31 29 29 28 28 27 26 24 22 21 20 20 20 20 20 19 18 18 17 17 16 16 16 15
14 14 14 14 13 13 13 12 12 11 10 9 9 10 11 12 13 14 15 16 17 17 18 19 21 22 23 24 24 25 25 26 27 27 28 29 30 31 33 35 37 38 38 39 39 39 40 41 41 40 40 40 41 40 39 38 36 34 34 34 33 31 30 29 28 28 28 28 27 24 22 22 22 22 21 21 20 20 19 19 18 18 17 17 16
19 19 19 19 19 18 18 17 16 15 15 14 15 15 16 17 18 18 18 18 19 20 20 21 22 23 23 24 24 25 25 26 27 27 28 29 30 31 32 33 35 37 38 38 39 39 40 40 40 41 41 41 41 41 40 39 38 36 35 34 33 32 31 30 29 29 29 29 28 27 25 24 24 23 22 21 21 20 20 19 19 19 18 18 17
21 22 22 23 23 23 23 23 22 22 21 21 21 22 22 23 23 23 22 22 22 23 23 23 23 24 24 24 25 25 25 26 27 27 28 29 30 30 31 32 34 35 37 38 39 39 40 40 40 41 41 41 41 41 41 40 39 37 36 34 34 33 32 31 30 29 29 29 30 29 27 26 24 23 22 21 21 22 21 20 20 19 19 18 17
18 19 21 22 23 24 25 26 27 27 27 27 27 28 29 28 28 27 26 26 26 26 26 25 25 25 25 25 25 25 25 26 27 28 29 30 31 31 31 31 33 34 36 37 38 39 39 40 40 41 41 41 40 41 41 41 40 39 37 35 34 34 34 33 32 31 30 30 31 30 29 28 26 25 24 23 24 23 22 21 20 19 19 18 17
16 18 19 21 22 22 23 25 26 27 28 29 30 30 31 31 31 31 31 30 30 29 29 27 27 26 26 26 26 26 27 27 27 28 29 30 31 31 31 31 32 34 35 36 37 38 39 40 40 40 40 40 40 40 40 41 40 40 38 37 36 36 35 34 33 32 32 32 32 31 30 30 29 28 27 26 24 23 22 21 20 20 20 19 18
16 18 19 20 22 22 23 24 25 26 27 28 29 29 30 31 32 33 33 33 32 32 31 30 29 28 27 27 27 27 28 28 28 28 29 30 31 31 31 31 32 33 34 36 37 38 39 40 40 40 40 40 40 40 40 41 41 39 38 37 37 37 37 36 36 34 33 33 33 33 33 32 31 30 28 26 23 22 21 21 21 21 21 21 20
14 16 17 20 21 22 23 25 25 27 28 28 29 29 29 29 30 31 32 32 32 32 32 33 32 30 28 27 27 28 28 28 28 29 29 30 30 31 31 31 32 33 34 35 36 37 38 39 40 41 41 41 41 41 41 41 41 39 38 37 36 36 36 36 37 36 35 35 34 34 34 34 32 30 28 26 25 23 22 22 22 23 23 23 23
10 12 14 17 19 21 22 23 24 26 27 28 28 28 28 29 29 29 30 31 31 32 33 33 32 30 29 28 27 27 27 28 28 29 29 30 30 31 31 31 32 33 34 35 35 36 36 38 39 41 42 42 42 42 41 41 41 39 37 37 36 36 35 35 35 35 35 35 35 36 35 34 32 31 29 28 26 25 23 22 23 23 23 23 23
10 9 10 12 15 18 19 21 22 24 25 27 28 28 29 29 29 29 29 30 30 31 31 31 30 30 29 28 27 27 27 27 28 29 29 29 30 30 30 31 32 33 33 34 34 35 36 37 38 40 42 42 42 42 42 42 41 39 37 37 37 36 35 34 34 35 34 34 35 35 35 33 32 31 29 28 27 26 25 24 24 24 23 22 22
15 14 12 12 12 14 16 17 19 20 22 24 25 26 27 28 28 28 29 29 29 29 29 28 28 28 28 28 27 26 26 26 27 28 28 28 29 30 30 31 32 33 33 33 34 34 35 36 37 39 40 42 42 43 43 42 41 40 39 39 38 37 36 36 36 36 35 35 35 34 33 32 31 29 29 29 29 28 26 26 25 24 24 23 23
15 15 15 14 14 14 14 15 16 17 19 20 21 21 22 23 25 26 27 28 28 27 26 26 25 26 27 27 27 26 26 26 26 27 27 27 28 29 29 31 32 33 33 34 34 34 33 34 35 36 38 40 41 42 42 41 41 40 40 40 39 38 38 38 38 38 37 37 36 34 33 31 30 29 29 29 29 28 26 24 24 24 24 24 24
13 13 14 14 14 14 14 14 14 15 15 16 18 18 18 19 20 22 23 24 25 25 25 24 25 25 26 26 26 25 25 25 26 26 26 26 27 28 29 30 32 33 34 34 34 34 33 33 34 35 36 37 38 38 39 39 40 40 41 40 40 40 40 39 39 38 38 37 36 35 34 33 31 30 30 29 29 29 27 25 25 25 25 25 24
13 13 13 13 13 14 13 13 13 14 13 13 14 15 15 16 17 18 19 20 20 21 21 22 23 24 25 25 24 25 25 25 25 26 26 27 27 28 29 29 31 33 34 35 34 34 34 34 34 34 34 34 34 35 36 37 38 40 40 41 41 41 41 41 40 39 39 37 36 35 34 32 31 30 29 28 28 28 28 27 27 28 27 26 25
13 14 13 13 13 13 13 13 12 12 12 12 11 11 11 12 12 13 14 16 17 17 17 18 20 21 22 22 23 24 24 24 25 26 27 27 27 28 28 28 30 33 34 35 35 35 35 35 34 34 34 34 33 34 35 36 37 39 40 41 42 43 43 43 42 40 39 38 36 35 33 32 30 29 28 27 27 27 27 27 27 28 27 26 25
13 13 13 13 13 12 12 13 13 12 11 11 11 10 10 10 9 9 10 12 13 14 15 16 17 18 20 21 22 23 23 23 25 26 27 27 27 28 28 28 29 32 35 37 37 36 36 35 36 35 35 34 34 34 34 35 36 38 39 41 43 44 44 43 43 42 41 40 38 36 34 33 31 30 29 28 27 28 27 26 27 27 27 26 25
14 13 12 12 12 12 11 11 12 13 12 11 10 10 10 10 9 9 9 10 11 12 14 15 16 18 19 20 21 22 23 24 25 26 26 26 27 27 28 28 30 32 35 37 38 38 37 36 36 36 35 34 34 34 34 35 36 37 39 41 42 42 42 42 42 41 40 39 38 37 35 34 33 32 31 31 30 29 29 28 28 28 27 27 27
16 15 14 12 11 11 11 10 10 11 13 13 12 11 10 10 11 11 11 11 12 13 14 15 16 18 19 20 21 22 23 23 24 25 25 25 25 27 28 29 30 31 34 36 37 37 37 36 36 35 35 34 34 34 34 34 35 36 37 38 39 39 39 40 40 39 38 37 37 36 35 35 34 33 33 33 32 31 30 29 29 29 28 28 28
18 18 17 15 12 11 10 10 10 10 10 12 13 12 11 11 11 11 12 13 13 15 16 16 17 18 19 20 21 21 22 22 22 23 23 23 23 25 27 28 29 30 32 34 36 36 36 35 34 34 34 34 34 34 33 32 33 34 35 35 36 36 37 38 38 38 37 36 36 35 35 34 33 33 33 33 32 31 31 30 30 29 28 28 28
19 19 19 18 16 13 10 10 10 10 10 10 11 12 13 12 11 11 11 12 13 15 15 16 17 18 18 19 19 19 19 19 20 20 20 20 20 22 25 26 27 28 29 31 32 33 32 32 31 31 31 32 32 31 31 31 32 33 34 35 35 35 36 36 36 35 34 33 33 33 33 33 33 33 33 33 32 31 30 30 29 29 28 28 28
19 19 20 20 19 18 15 12 10 10 10 10 11 12 13 14 13 13 12 12 12 14 14 14 15 15 16 17 17 17 17 17 17 17 17 17 17 18 21 23 24 25 26 27 28 28 27 27 27 27 28 29 30 30 30 30 31 32 33 34 35 35 34 33 32 31 30 30 31 31 31 32 32 33 32 32 31 30 29 28 27 28 29 29 28
20 20 20 20 20 20 20 17 14 12 10 10 11 11 12 13 14 14 14 14 13 13 13 13 13 13 14 15 15 16 16 16 16 15 15 15 14 16 18 20 22 23 23 24 24 24 24 24 24 25 26 27 28 29 30 30 31 31 31 31 31 31 31 30 29 29 29 30 31 31 31 31 31 31 31 30 30 29 28 28 27 28 28 28 27
22 22 22 22 21 21 21 21 19 17 14 12 12 12 12 12 13 14 14 14 14 14 14 13 13 12 13 14 14 15 15 15 15 15 14 14 14 15 17 20 21 22 22 23 23 23 23 23 24 24 25 26 27 28 29 31 31 31 31 30 30 29 28 28 29 29 30 31 31 31 31 32 31 30 30 29 28 28 28 27 27 26 26 25 25
23 23 23 23 23 22 22 22 22 21 19 17 15 14 14 14 14 14 14 14 15 15 15 15 14 13 13 13 14 14 15 15 15 15 14 14 14 16 17 19 21 22 22 23 23 23 23 23 23 24 25 26 27 27 29 30 31 31 31 31 30 30 30 30 30 31 32 32 32 32 32 32 31 30 30 29 28 27 26 25 25 24 24 24 23
24 24 24 23 23 23 23 23 23 23 22 20 19 17 16 16 15 15 15 15 15 15 15 16 15 15 14 14 15 15 14 15 15 15 15 15 15 16 17 19 21 22 22 23 23 23 23 23 24 25 26 27 28 29 30 31 31 31 31 31 31 31 32 31 31 31 32 32 33 33 33 32 32 31 30 28 27 26 24 23 22 22 22 21 21
24 24 24 24 24 23 23 23 23 23 24 23 22 20 19 17 17 17 17 17 17 16 16 16 16 16 16 16 16 16 15 15 15 15 16 16 16 16 17 18 20 21 21 21 22 22 24 25 26 27 28 29 29 30 30 30 30 30 30 29 30 30 30 31 31 31 31 32 33 33 33 33 31 29 28 26 24 23 21 20 20 19 19 19 19
24 24 24 25 24 24 23 23 23 22 23 24 23 22 21 19 18 17 17 18 19 19 18 18 18 17 17 18 18 17 16 16 16 16 16 17 17 17 16 17 18 19 19 20 20 22 24 25 27 28 29 29 29 30 30 30 30 29 29 28 28 29 29 30 30 31 31 31 31 32 32 31 30 28 26 24 22 21 19 18 18 18 17 18 18
25 25 25 25 25 24 24 23 23 22 22 22 22 22 22 21 20 19 18 17 18 19 20 20 19 19 18 18 19 18 18 18 17 17 17 18 18 18 17 17 18 18 19 20 21 22 23 25 26 27 27 27 27 27 27 27 27 28 28 28 28 28 28 27 27 27 27 28 28 29 28 27 26 24 22 21 20 19 18 17 17 16 16 16 16
25 25 25 25 25 25 24 23 22 22 21 21 21 21 20 20 19 19 18 17 17 17 18 19 20 20 20 19 19 19 19 19 19 18 17 18 18 18 18 18 19 20 20 21 21 22 22 23 23 24 24 24 24 23 23 23 23 24 25 26 27 26 25 24 24 23 23 23 23 24 23 22 21 20 19 18 18 17 17 16 16 16 15 15 16
22 23 24 24 24 23 23 23 22 21 20 20 20 19 19 19 18 18 18 17 16 16 16 17 18 19 19 19 19 19 18 18 17 17 17 17 17 18 18 19 20 21 21 22 22 22 22 22 21 22 22 22 22 21 21 21 21 21 22 23 23 23 23 22 21 20 20 19 19 19 19 19 18 18 18 17 17 16 16 15 15 15 15 16 16
20 20 21 23 23 22 22 22 21 20 20 19 19 19 19 18 17 17 17 17 16 16 15 16 16 17 18 18 18 17 17 16 15 15 16 16 17 18 19 19 20 20 20 20 21 21 21 21 20 21 21 21 20 20 20 20 20 20 20 20 21 21 21 20 19 19 18 18 18 18 18 18 17 17 17 17 16 16 16 15 15 15 15 15 16
19 19 19 20 21 21 21 21 20 20 20 20 19 19 19 18 18 17 17 17 17 16 15 16 16 17 18 18 18 18 17 17 17 16 16 16 17 17 17 18 18 19 19 19 19 19 20 20 20 20 21 20 20 19 19 19 20 20 20 20 20 20 20 20 19 19 18 18 18 17 17 17 16 16 16 16 16 15 15 15 15 15 15 15 15
18 18 18 18 19 19 19 19 19 19 19 19 19 20 20 20 19 19 19 18 18 17 17 17 17 18 18 19 18 18 17 17 16 16 16 16 16 16 16 16 17 19 19 19 18 18 19 19 20 20 21 21 20 19 19 19 19 19 18 18 18 18 18 18 18 18 18 17 17 17 16 16 16 16 16 15 15 15 14 14 14 15 15 14 15
17 17 17 17 18 18 18 18 18 18 18 19 19 20 20 20 20 20 20 19 19 18 18 18 18 19 19 18 18 18 17 15 14 14 14 14 15 16 16 16 16 18 18 18 17 17 18 19 19 20 20 20 20 19 19 18 17 17 16 16 16 15 15 15 15 16 16 15 15 15 15 15 15 15 15 15 14 14 14 14 14 14 14 14 14
17 17 17 16 16 17 17 17 16 17 17 18 19 20 20 20 20 20 20 20 19 19 19 19 19 19 19 18 17 17 16 15 14 13 13 14 15 15 16 16 16 16 17 17 16 16 17 18 18 18 19 20 20 19 19 18 17 16 16 15 15 15 14 14 14 14 14 14 15 15 15 15 15 14 14 14 13 13 13 13 14 14 14 14 14
16 15 15 15 15 15 15 15 15 15 15 16 17 18 19 19 19 19 19 19 19 19 18 18 18 18 18 17 16 16 15 14 13 13 13 13 13 14 14 14 14 14 14 15 15 15 15 16 16 17 17 17 18 18 18 17 17 16 16 15 15 14 14 14 14 14 14 14 14 14 14 14 14 14 14 13 13 13 13 13 13 13 14 14 14
15 14 13 13 12 13 13 12 12 12 13 14 15 15 16 17 17 17 18 17 17 17 17 16 16 16 15 14 13 13 13 12 12 12 12 12 12 12 12 12 12 13 13 14 14 14 14 15 15 15 14 14 15 15 15 15 16 16 15 15 14 14 14 13 13 13 13 13 13 13 13 13 13 13 13 13 13 13 14 13 13 13 14 14 14
13 13 12 12 11 11 11 11 10 10 10 10 11 12 13 14 14 14 14 14 14 14 13 13 13 12 11 10 9 9 9 9 9 9 10 10 10 11 11 11 11 12 12 13 13 14 14 14 14 14 13 13 13 13 13 14 14 14 14 14 14 13 13 13 12 12 12 12 12 12 12 12 13 13 13 13 13 13 13 13 13 13 13 14 14
12 11 11 10 10 9 9 9 8 7 7 6 6 7 8 9 10 11 11 11 11 10 10 10 10 10 9 8 8 7 7 7 8 8 8 9 9 10 10 10 11 11 12 12 12 12 12 12 12 12 12 11 11 11 11 11 12 12 12 12 12 12 12 12 12 12 12 12 12 12 12 12 13 13 13 13 13 13 13 13 13 14 14 14 15
10 9 9 9 8 8 7 7 6 5 4 3 3 3 4 5 6 7 8 8 8 8 8 8 8 9 9 9 9 8 8 8 8 9 9 9 9 9 9 10 10 11 11 11 11 12 12 11 11 11 10 10 10 9 9 9 10 10 10 11 11 11 11 11 11 11 12 12 12 12 12 12 13 13 13 13 14 14 14 14 14 15 15 15 16
8 8 8 7 7 6 6 5 4 3 3 2 2 2 2 3 4 5 6 6 6 6 6 7 7 7 8 8 8 8 8 8 9 9 9 9 10 10 10 10 10 11 11 11 11 11 11 11 11 10 10 10 9 9 9 9 9 9 9 9 10 10 10 10 11 11 12 12 12 12 12 13 13 14 14 14 14 15 15 15 15 16 16 16 16
7 6 6 6 6 5 5 4 4 3 2 1 1 2 2 3 3 4 4 4 5 5 5 6 6 7 7 7 7 7 7 7 7 8 8 9 9 10 10 10 10 10 10 10 10 10 10 10 10 10 10 10 10 9 9 9 9 9 9 9 10 10 10 10 11 12 12 12 12 12 13 14 14 14 15 15 15 16 16 16 17 17 17 17 17
5 5 5 4 4 4 4 3 3 2 2 1 1 2 2 2 3 3 4 4 4 5 5 6 6 7 7 7 7 7 6 6 7 7 7 8 8 9 9 9 9 9 9 9 9 9 9 9 9 9 9 9 9 9 9 9 9 10 10 10 11 11 11 11 12 12 13 13 14 14 14 15 15 16 16 16 17 17 17 18 18 18 18 19 19
5 5 4 4 3 3 3 2 1 1 1 1 1 1 2 2 2 3 4 4 4 5 5 6 6 7 7 7 7 7 7 7 7 7 7 8 8 9 9 9 9 9 9 9 9 9 9 9 9 9 9 9 9 9 9 10 10 11 11 11 12 13 13 13 13 14 14 15 16 16 16 17 17 18 18 18 19 19 19 20 20 20 20 20 20
5 5 5 4 4 4 3 3 2 2 1 1 2 2 2 3 3 3 4 4 5 5 6 6 6 7 7 7 7 7 7 7 8 8 8 8 8 9 9 9 9 9 9 10 10 9 9 10 10 10 10 10 10 10 10 11 11 11 12 13 13 14 15 15 15 15 16 17 17 18 19 19 19 20 20 20 20 21 21 21 22 21 21 22 21
5 5 5 5 5 5 5 4 4 4 3 3 3 3 3 3 4 4 5 5 6 6 6 7 7 7 7 7 7 7 7 8 8 8 8 8 8 9 9 9 9 9 10 10 10 10 10 10 10 10 11 11 11 11 11 12 12 13 13 14 15 15 16 17 17 17 17 18 19 20 21 21 21 21 22 22 22 22 22 23 23 23 23 23 22
6 6 5 5 5 5 5 5 5 6 5 5 5 5 5 5 5 5 5 6 6 7 7 7 8 8 8 8 8 8 9 9 9 9 9 9 9 9 9 10 10 10 10 10 11 11 11 11 11 11 12 12 12 12 13 13 14 14 15 15 16 17 18 18 19 19 20 20 21 21 23 23 23 23 23 23 24 24 25 25 25 24 24 24 23
8 7 7 7 6 6 6 6 6 7 7 7 7 7 7 7 7 7 7 7 7 7 8 8 8 9 9 9 9 9 10 10 10 10 10 10 10 11 11 11 11 11 11 12 12 12 12 13 13 13 13 14 14 14 15 15 16 17 17 18 18 19 19 20 21 21 22 22 23 23 24 24 25 25 25 25 25 25 25 25 25 25 25 24 24
Wind_Direction
237 225 218 212 208 206 204 205 206 208 213 219 224 226 228 231 233 237 241 244 247 250 252 254 253 252 251 251 250 249 248 247 246 244 242 241 239 238 238 238 237 236 235 234 233 232 232 231 230 230 229 229 229 230 231 232 232 231 231 230 228 225 220 217 215 215 213 213 217 219 216 213 212 212 214 216 215 214 214 215 217 218 221 223 225
257 239 223 207 201 200 199 199 199 203 211 221 230 235 236 238 239 241 243 245 247 249 250 251 252 252 252 252 252 252 251 250 249 247 245 243 241 239 238 238 237 236 235 234 233 232 232 231 230 230 229 230 231 231 233 233 233 232 232 232 230 227 224 220 218 217 217 215 212 213 215 215 216 217 218 218 217 217 217 219 220 221 224 226 227
266 254 233 209 198 195 194 195 196 199 205 215 233 249 257 260 257 256 256 255 255 254 253 253 253 253 253 252 253 253 253 252 252 250 248 246 244 242 239 238 237 236 236 235 233 232 231 231 231 230 229 229 230 232 233 234 234 233 234 234 233 230 227 223 221 220 222 221 217 216 217 218 220 221 220 218 219 222 225 226 228 228 230 230 230
264 258 247 231 219 213 212 212 212 215 217 222 240 259 268 270 268 266 264 262 261 261 259 257 255 254 254 253 253 253 253 253 252 252 251 249 247 244 242 240 239 238 237 237 235 233 232 232 232 231 229 229 230 231 232 234 234 234 234 235 235 233 230 227 224 223 224 224 223 221 222 223 222 221 220 222 225 230 232 232 232 232 233 234 231
259 255 250 241 234 231 231 231 231 233 237 242 250 258 263 266 266 267 265 263 264 265 263 261 258 257 257 256 255 255 254 254 253 253 252 251 248 246 244 242 240 239 239 238 237 235 234 234 233 232 231 229 230 230 232 233 234 233 233 235 235 235 233 229 227 225 226 227 227 223 221 223 225 225 226 230 231 232 233 233 233 233 233 235 233
252 252 250 246 243 242 241 241 243 245 248 251 256 260 262 262 262 264 266 265 265 264 263 263 261 260 260 259 258 256 256 255 255 254 253 252 250 247 244 243 242 241 240 238 238 237 236 235 235 234 233 231 231 231 232 234 234 233 232 234 235 234 234 231 228 226 226 228 229 227 223 224 227 229 230 230 231 232 232 233 234 234 233 233 233
246 247 248 248 247 247 247 247 248 250 252 254 257 260 262 262 260 260 262 264 264 263 262 262 262 262 261 260 260 258 257 257 256 255 254 252 251 248 246 244 242 241 241 240 239 238 238 237 236 235 235 234 233 233 234 234 235 235 234 234 234 234 234 233 230 227 226 226 228 230 229 228 229 230 230 229 230 230 230 231 232 232 232 232 233
253 252 250 249 249 249 249 249 250 252 254 255 257 259 261 261 260 259 258 260 262 263 263 262 262 262 261 260 260 259 258 257 256 255 255 253 252 250 248 246 244 243 241 240 239 238 238 238 237 237 237 237 236 235 235 236 237 236 235 234 234 235 235 235 232 229 227 227 228 231 233 232 231 230 228 227 228 229 229 229 230 231 231 232 232
259 258 256 255 254 253 252 252 254 255 256 258 259 260 261 262 261 260 260 260 260 260 262 263 261 260 260 259 259 258 258 258 257 257 256 255 254 252 250 249 247 245 243 241 239 239 239 239 239 238 238 238 238 237 237 238 238 238 237 235 234 234 235 236 235 232 229 227 227 229 232 234 235 234 232 231 231 230 229 228 228 228 229 229 229
262 259 259 259 259 258 257 256 257 259 260 261 262 263 263 263 263 263 262 263 261 258 259 261 261 260 260 259 259 258 258 259 259 258 258 258 257 255 253 251 249 247 245 243 241 240 239 240 240 240 239 239 239 238 238 239 240 240 240 239 238 237 236 236 236 234 232 230 228 228 230 234 236 238 239 238 235 230 228 227 225 225 225 225 226
280 272 266 265 264 263 262 260 260 261 261 262 263 264 265 265 265 265 264 264 262 258 258 259 260 260 260 260 260 259 260 260 260 259 259 259 259 257 256 254 252 249 247 245 244 243 241 241 241 240 239 239 239 238 238 239 240 240 240 240 240 241 240 240 239 238 236 234 232 231 232 236 239 241 242 241 237 233 229 226 225 225 224 223 224
307 291 281 275 272 271 270 268 267 267 267 266 266 265 265 265 265 265 264 263 261 259 258 258 259 260 260 261 260 260 261 261 261 260 259 259 259 259 258 256 253 251 250 248 247 246 244 242 241 241 240 239 238 238 238 238 239 239 239 239 240 241 242 243 243 242 241 239 237 236 236 237 239 240 242 241 240 238 233 227 225 226 225 224 225
4 339 315 297 287 283 279 277 275 274 273 273 272 271 269 267 266 265 264 263 261 260 259 258 257 256 257 259 260 261 262 261 261 260 259 259 259 259 257 256 255 253 252 251 250 248 246 244 242 241 240 239 238 238 238 238 238 238 237 238 238 239 240 241 242 243 244 244 243 243 243 242 240 241 242 242 242 240 236 229 225 224 224 225 225
22 13 360 341 320 305 294 287 282 279 276 275 274 274 273 271 269 267 266 265 264 263 262 260 256 252 253 256 259 260 262 262 261 261 261 260 260 259 257 256 256 255 254 253 252 250 249 247 245 243 242 240 239 238 238 238 238 237 236 236 237 237 237 238 240 241 241 242 242 244 245 244 243 242 241 240 240 239 237 234 230 226 222 221 222
21 16 10 2 351 337 321 306 294 286 281 278 275 274 274 273 272 270 269 267 266 264 263 260 254 249 249 252 255 258 261 263 263 263 263 262 260 259 257 256 255 254 254 253 252 251 250 248 247 246 245 243 242 241 240 239 238 237 237 237 236 236 236 237 238 240 241 241 241 242 242 241 240 237 236 235 235 235 234 234 232 229 224 220 219
15 12 8 3 358 352 343 329 316 303 293 287 281 277 275 275 275 275 273 271 270 267 263 259 253 247 245 248 252 256 259 261 263 264 263 262 260 258 256 254 253 253 252 252 251 250 249 248 247 246 245 245 244 243 242 240 238 237 237 237 236 235 235 235 236 237 239 240 240 240 240 239 237 235 233 231 230 229 228 225 224 225 224 220 218
6 7 4 359 354 351 347 341 332 322 314 305 295 288 282 280 279 279 278 277 275 270 265 259 253 247 246 248 252 255 258 261 264 264 263 261 258 257 255 253 251 250 250 250 249 248 248 247 246 245 244 244 243 242 241 240 238 237 236 235 234 233 233 233 233 233 234 236 236 236 237 236 235 234 232 230 229 229 228 226 225 225 223 220 217
357 359 358 357 353 348 344 340 337 331 326 321 315 309 303 296 290 285 279 275 274 271 266 260 255 251 250 252 255 257 260 262 264 265 264 261 257 255 255 252 249 247 247 246 246 246 246 246 245 244 243 243 242 240 239 238 236 235 234 234 233 232 232 232 230 228 228 229 230 230 230 230 230 229 228 227 227 229 231 231 231 229 225 221 217
348 349 350 353 352 348 344 339 337 335 332 328 325 323 322 318 311 300 286 275 270 267 263 259 256 254 253 255 256 259 261 262 264 265 264 262 258 255 253 250 246 244 244 244 244 244 244 244 244 244 243 243 241 239 238 237 236 235 233 232 232 232 232 233 231 229 227 226 226 227 226 226 225 225 225 224 224 227 229 229 230 230 227 223 218
342 340 342 346 346 345 345 340 337 336 334 332 328 323 322 321 317 311 299 287 277 268 263 260 259 259 258 258 259 261 262 263 263 264 264 261 258 255 251 248 245 243 243 244 244 244 244 243 243 244 243 243 241 239 238 237 236 235 233 233 233 234 234 233 232 231 230 229 228 228 227 226 225 224 224 224 224 226 227 228 228 227 226 224 222
338 335 333 335 337 340 342 340 339 337 334 333 332 325 320 315 311 308 302 295 288 279 272 267 264 263 263 263 263 263 263 263 263 263 262 259 255 252 250 247 245 243 243 244 245 245 245 244 244 245 244 243 241 239 236 235 234 234 234 235 236 237 236 234 233 230 228 227 227 226 225 225 224 224 225 227 227 227 227 227 227 226 225 225 225
336 334 331 330 328 331 337 337 338 338 334 332 331 328 324 316 307 304 301 297 293 288 283 279 275 271 269 268 266 266 266 266 265 264 262 258 252 247 246 245 244 243 243 244 245 246 246 246 246 245 244 242 240 237 234 232 232 231 232 233 234 234 234 233 232 228 225 223 223 222 222 222 222 223 226 228 230 229 227 225 225 225 224 224 225
331 332 332 330 327 326 329 332 335 336 334 333 331 330 329 324 314 305 297 292 291 288 286 284 282 280 279 277 275 275 274 272 271 269 267 263 254 247 244 243 243 243 243 245 247 248 249 249 248 246 243 240 238 234 231 230 230 229 228 228 228 229 229 228 228 226 223 221 221 220 220 220 222 224 226 228 230 229 226 223 221 221 221 221 221
327 330 332 331 329 327 326 326 328 330 331 331 329 329 329 327 325 318 309 301 295 292 289 288 287 287 288 287 287 286 285 283 282 280 276 271 263 253 247 244 242 243 243 245 248 250 251 251 248 245 242 238 234 230 226 226 226 225 224 224 224 224 224 224 224 224 221 218 216 215 216 218 222 224 226 227 226 225 224 220 217 215 215 215 216
328 330 331 332 331 329 327 326 324 323 325 325 325 326 325 324 323 320 316 311 307 303 300 298 296 294 294 294 293 291 289 287 287 285 281 275 266 257 249 246 244 243 243 245 247 248 248 246 243 240 237 234 230 226 221 218 217 216 216 217 219 220 220 220 220 218 215 212 212 212 214 217 220 223 223 223 221 219 218 216 213 212 212 211 212
329 330 330 331 331 331 329 327 324 322 321 321 321 321 320 318 316 314 312 309 306 305 304 302 301 298 295 293 292 290 288 286 285 284 280 273 265 256 249 244 243 242 242 243 244 243 242 240 238 236 232 228 225 222 218 213 210 209 209 210 210 211 212 213 214 211 210 210 211 212 215 217 217 217 217 217 215 213 213 212 211 211 211 211 212
323 324 324 325 326 328 328 327 325 323 321 319 319 318 317 314 311 308 305 302 299 299 300 300 300 299 296 293 289 286 285 284 282 280 277 272 265 258 251 246 243 241 239 239 239 238 236 233 231 228 224 220 217 215 213 210 207 206 207 206 205 205 205 207 209 210 211 212 212 212 213 212 210 209 209 209 208 207 207 208 209 211 212 214 216
313 314 315 316 318 320 321 322 322 321 320 318 317 315 315 314 311 307 302 296 292 291 291 291 292 293 293 289 285 281 280 280 279 276 272 269 264 259 255 251 248 244 240 237 234 231 227 224 220 216 213 210 208 206 205 204 203 203 204 204 204 205 205 206 208 210 211 212 211 208 206 204 203 203 203 204 205 205 207 208 211 215 218 220 223
304 304 304 305 308 309 311 313 314 315 315 315 315 314 313 312 310 306 301 294 289 283 280 279 280 281 281 279 277 276 276 274 272 270 267 264 260 257 255 252 248 244 239 236 232 226 221 216 212 209 206 205 203 202 201 202 202 202 204 205 208 209 208 209 208 207 205 204 204 202 200 199 199 201 203 205 208 210 211 212 214 218 223 226 227
295 295 294 295 296 298 299 301 304 306 307 307 308 309 309 309 307 304 299 294 288 281 274 270 268 268 269 269 268 268 267 266 265 264 262 260 256 254 251 246 242 236 230 226 223 221 217 212 208 206 205 205 205 204 204 205 207 209 210 211 212 211 208 206 204 202 200 199 199 200 202 202 204 206 208 210 212 213 213 213 214 217 222 227 229
291 291 289 287 286 287 288 290 293 296 298 299 299 299 300 302 303 301 298 294 288 281 274 268 263 259 259 259 259 257 256 255 255 255 255 253 250 246 241 235 230 226 221 217 214 214 214 212 209 207 206 206 208 209 210 212 213 213 212 209 205 203 201 199 199 200 200 201 202 203 205 208 209 210 210 210 211 211 211 212 214 215 216 220 225
290 291 289 285 281 280 279 281 284 287 290 292 293 292 292 292 293 294 294 292 288 282 275 268 260 254 251 250 250 249 248 248 249 249 248 245 242 238 232 227 222 219 216 214 212 212 214 215 215 214 214 215 216 215 214 213 209 206 203 199 196 195 196 198 199 199 199 200 201 202 205 207 207 207 207 207 208 209 209 210 213 214 213 214 220
293 294 294 291 286 280 276 275 277 280 283 285 285 285 285 285 285 285 285 285 284 281 275 267 258 251 246 244 243 244 245 246 246 245 242 237 233 229 224 220 218 216 214 214 213 213 215 216 218 219 218 217 215 212 208 204 200 196 194 194 194 194 194 195 196 196 196 197 198 200 202 203 204 205 205 206 208 210 210 210 211 213 216 219 223
297 297 298 298 294 289 283 278 276 278 279 279 278 277 276 277 277 275 273 272 272 271 268 262 255 248 242 239 236 235 236 237 236 233 231 228 226 224 223 220 218 214 213 215 216 215 214 213 212 211 210 207 204 200 197 194 193 193 192 193 194 194 193 193 194 195 196 197 197 199 201 203 205 207 208 209 211 213 214 215 216 219 223 226 228
299 297 298 300 299 295 290 285 282 280 279 278 276 273 270 267 265 262 261 261 261 259 255 251 246 242 237 234 230 228 229 230 228 223 221 220 221 222 225 225 222 215 211 211 213 212 210 207 205 204 202 200 197 195 193 191 189 190 192 192 193 193 193 194 194 195 196 197 198 199 201 203 205 208 210 213 215 217 218 219 221 224 224 226 229
302 298 297 298 298 296 293 290 287 284 283 281 278 273 269 265 260 256 255 254 253 250 246 241 236 232 229 226 224 222 222 225 227 225 222 221 220 219 218 220 221 218 214 211 210 208 205 203 202 199 197 196 195 193 193 192 191 191 191 192 192 192 192 192 193 194 195 197 198 200 202 204 206 209 212 214 216 218 219 218 219 223 224 223 227
306 303 300 299 298 296 294 293 291 288 286 283 279 274 269 264 259 254 251 248 246 243 239 234 230 226 222 220 218 216 214 213 216 217 217 216 215 214 212 214 216 217 214 211 208 207 204 201 199 197 196 194 193 192 191 191 192 192 192 193 194 194 194 193 194 195 197 199 200 201 203 205 207 210 212 214 216 217 217 217 219 223 227 228 231
311 308 305 302 300 297 295 295 294 293 290 286 282 277 271 264 258 251 247 244 241 238 234 230 227 223 220 217 215 214 213 211 209 208 207 206 206 206 207 207 209 211 211 208 204 202 201 197 194 193 193 191 190 191 190 190 191 192 193 195 196 196 197 198 198 199 201 202 202 204 205 207 210 212 213 216 218 221 223 226 227 230 234 238 241
315 311 308 307 305 302 300 299 298 298 296 291 285 279 272 265 258 251 245 241 237 234 232 229 226 223 220 218 215 213 213 213 210 208 206 203 200 199 199 199 200 200 200 198 195 194 195 194 191 190 191 191 190 191 191 191 191 192 193 195 197 197 199 200 201 203 205 206 208 210 211 213 216 219 222 223 225 229 232 234 237 239 241 242 244
318 316 314 313 313 313 312 310 306 303 299 293 286 278 270 263 256 251 246 242 238 236 235 233 231 229 227 224 221 218 216 212 207 205 203 200 196 194 192 192 192 190 188 189 189 189 191 193 192 192 194 194 194 194 193 193 193 194 195 197 199 202 204 206 209 211 213 216 218 219 221 223 224 226 230 230 231 233 236 237 238 241 243 243 243
322 320 319 319 322 325 326 325 320 313 304 294 284 274 264 257 252 248 245 242 239 238 239 238 238 239 238 236 232 228 223 212 201 197 196 194 193 191 189 189 190 189 188 188 188 188 191 192 192 193 195 196 198 199 199 199 198 198 199 200 202 205 208 212 215 218 220 223 225 226 227 229 229 230 233 234 233 234 236 238 239 241 244 246 248
326 325 325 327 330 331 333 334 332 326 316 303 287 271 257 249 244 240 236 233 232 231 232 233 233 233 234 233 229 225 218 208 198 193 190 188 188 187 186 187 188 188 189 190 190 191 192 192 192 193 195 197 200 202 205 206 206 204 204 204 204 206 209 213 216 220 222 224 227 229 230 232 233 235 236 237 238 239 240 241 243 245 246 249 252
335 333 334 334 334 334 336 337 336 331 324 313 295 274 254 241 235 229 225 224 224 222 221 222 220 217 215 213 210 206 202 195 190 187 185 184 184 184 184 186 186 187 190 191 192 193 194 194 195 197 197 198 202 204 207 212 214 211 210 210 208 209 212 216 219 223 226 228 231 234 236 238 241 243 244 243 244 246 246 246 247 249 249 251 253
345 345 345 344 342 341 338 335 332 327 318 305 284 262 243 229 225 223 220 221 221 218 216 215 210 207 206 204 199 197 195 190 186 184 182 180 180 180 183 185 187 188 191 192 194 196 196 196 198 200 200 202 206 209 212 217 221 222 222 222 220 219 220 222 226 230 234 237 239 242 245 246 247 248 250 251 250 251 252 252 252 252 252 253 254
347 349 351 352 351 349 347 342 337 329 314 290 254 227 214 212 212 211 212 213 212 209 207 206 203 203 204 204 200 197 195 191 187 185 183 181 180 182 184 185 186 187 190 192 195 197 198 198 200 203 204 206 209 213 217 222 228 233 235 236 236 235 233 234 236 240 242 244 247 248 249 251 252 253 254 256 256 256 257 257 256 256 256 255 255
339 341 344 347 352 353 355 354 347 340 329 305 269 235 216 209 204 203 203 203 203 204 203 203 205 205 205 206 205 203 199 196 193 191 189 186 186 188 191 191 191 193 196 199 201 202 203 205 208 210 212 214 217 220 223 226 232 238 242 244 247 248 248 247 248 250 251 253 254 254 254 256 257 258 258 259 260 259 259 259 259 259 259 258 257
325 328 328 330 334 335 338 339 337 332 317 289 266 246 236 228 220 216 215 211 209 210 209 208 208 209 208 208 207 205 204 203 201 199 199 197 195 197 200 200 200 202 204 208 212 214 214 217 220 222 224 227 229 231 234 236 239 244 248 250 253 254 255 254 254 255 258 259 260 261 260 261 261 261 262 262 262 262 262 262 262 261 260 261 260
313 315 315 318 320 317 317 317 307 293 282 264 240 225 224 224 219 219 223 223 220 221 221 219 219 219 219 218 216 213 212 211 209 208 208 208 206 207 208 208 209 211 213 215 219 222 223 226 229 231 234 236 238 241 243 245 247 250 253 256 258 260 260 261 261 261 261 263 264 265 265 264 263 263 263 263 263 263 263 262 263 262 260 260 261
297 299 301 305 307 307 308 307 302 299 297 288 274 260 248 238 230 224 225 225 223 225 227 227 226 227 228 227 226 225 224 222 221 221 221 221 220 220 221 220 221 222 223 225 228 230 232 235 237 239 243 245 247 250 252 253 255 258 259 261 263 266 267 269 269 268 268 268 268 268 268 267 266 265 265 265 265 264 263 263 263 263 262 261 261
282 285 288 291 292 295 296 295 292 293 292 287 283 280 273 266 260 252 246 241 237 234 234 233 232 232 232 231 231 231 231 230 230 231 231 231 232 232 233 233 234 235 236 237 239 241 244 246 248 251 254 256 258 260 262 263 265 266 266 267 269 271 272 273 274 274 273 272 270 269 269 269 268 268 267 266 265 264 264 263 262 261 261 261 261
275 278 281 282 283 286 286 285 285 286 285 283 283 281 277 274 272 270 267 265 260 256 252 250 247 244 242 239 238 237 237 237 237 238 238 239 240 242 243 244 245 247 248 249 251 254 256 258 260 263 265 267 268 269 271 272 272 272 272 273 274 274 275 276 276 275 274 272 271 269 268 267 267 266 265 263 262 262 261 261 260 259 259 259 259